www.pogodaiklimat.ru

Погода и климат >> Архив погоды >> Норвегия >> Маяк Utsira


ПОГОДА на Маяке Utsira

  • Прогноз погоды на Маяке Utsira
  • Монитор погоды на Маяке Utsira

АРХИВ ПОГОДЫ на Маяке Utsira

Время (UTC), дата Ветер
(напр.,м/с)
 
Видим.   Явления Облачность Т
(С)
Тd
(С)
f
(%)
Тe
(С)
Тes
(С)
Комфортность P
(гПа)
Po
(гПа)
Тmin
(С)
Tmax
(С)
R
(мм)
R24
(мм)
S
(см)
14 12.01 СЗ 11
{17}
н/о н/о +6.8 +5.0 88 +1 +1 997.6 990.8 0.6
13 12.01 СЗ 14
{18}
н/о н/о +5.9 +4.2 89 -1 -1 998.0 991.2 2
15 12.01 СЗ 11
{15}
15 км {дождь} 6/4 600 м
[Sc Ac As Cs]
+6.8 +4.8 87 +1 +1 997.5 990.7
16 12.01 СЗ 11
{16}
н/о н/о +6.9 +5.1 88 +1 +1 997.8 991.0
17 12.01 СЗ 12
{18}
н/о н/о +6.6 +4.8 88 0 0 998.5 991.7 0.2
18 12.01 СЗ 11
{18}
15 км в посл. час ливневой дождь 9/8 600 м
[Cb cap Cs]
+6.7 +4.7 87 +1 +1 998.5 991.7 +5.8 +7.2
20 12.01 СЗ 9
{12}
н/о н/о +6.7 +5.0 89 +1 +1 998.7 991.9
19 12.01 СЗ 9
{14}
н/о н/о +6.6 +4.8 88 +1 +1 998.6 991.8
21 12.01 СЗ 8
{12}
15 км 10/9 300 м
[Sc]
+6.6 +4.9 89 +1 +1 998.3 991.5
22 12.01 СЗ 8
{11}
н/о н/о +6.4 +4.6 88 +1 +1 997.6 990.8
23 12.01 З 9
{12}
н/о н/о +6.6 +4.8 88 +1 +1 997.2 990.4 0.1
00 13.01 З 11
{14}
н/о н/о +6.1 +4.1 87 -0 -0 995.7 988.9 0.7
02 13.01 З 11
{14}
н/о н/о +6.5 +5.3 92 0 0 992.8 986.0 1
01 13.01 З 10
{13}
н/о н/о +6.3 +4.6 89 0 0 993.9 987.1 0.2
03 13.01 З 12
{16}
н/о н/о +6.6 +5.4 92 0 0 991.2 984.4 0.5
04 13.01 З 11
{14}
н/о н/о +6.8 +5.8 93 +1 +1 989.6 982.9 0.9
05 13.01 СЗ 7
{12}
н/о н/о +6.9 +6.0 94 +2 +2 988.1 981.4 0.8
06 13.01 З 14
{18}
15 км 10/10 300 м
[St]
+7.5 +6.6 94 +1 +1 986.9 980.2 +5.9 +7.5 0.3
08 13.01 СЗ 12
{19}
н/о н/о +6.5 +5.1 91 0 0 985.2 978.5 2
07 13.01 З 14
{19}
н/о н/о +7.4 +6.4 93 +1 +1 985.6 978.9 0.3
09 13.01 СЗ 13
{17}
8000 м слаб. дождь 10/4 300 м
[Frnb As op]
+6.5 +5.1 91 -0 -0 984.4 977.7 0.2
10 13.01 СЗ 14
{18}
н/о н/о +6.3 +4.8 90 -1 -1 984.5 977.8 0.7
11 13.01 С 13
{21}
н/о н/о +6.0 +4.3 89 -1 -1 984.6 977.9 0.2
12 13.01 С 19
{23}
н/о н/о +5.1 +2.0 80 -3 -3 985.5 978.7
14 13.01 С 25
{32}
н/о н/о +3.8 -1.9 66 -6 -6 988.4 981.6
13 13.01 С 23
{30}
н/о н/о +4.4 -0.6 70 -4 -4 986.8 980.0
15 13.01
{31}
н/о н/о +3.3 -2.2 67 990.1 983.3
16 13.01 С 24
{30}
н/о н/о +2.7 -4.5 59 -7 -7 991.7 984.8
17 13.01 С 23
{30}
н/о н/о +2.8 -3.9 61 -7 -7 992.9 986.0
18 13.01 С 21
{32}
10 км 9/9 600 м
[Cu med, cong]
+2.9 -4.1 60 -6 -6 994.1 987.2 +2.6 +7.6
20 13.01 СЗ 18
{28}
н/о н/о +2.0 -3.7 66 -7 -7 995.8 988.9
19 13.01 С 23
{30}
н/о н/о +2.5 -5.8 54 -7 -7 995.2 988.3
21 13.01 С 21
{30}
10 км {ливн. осадки} 5/5 300 м
[Cb cap]
+1.6 -3.8 67 -8 -8 996.2 989.3
22 13.01 С 20
{27}
н/о н/о +1.2 -4.4 66 -8 -8 996.8 989.9
23 13.01 С 21
{30}
н/о н/о +1.0 -6.3 58 -9 -9 997.5 990.6 0.1
00 14.01 СЗ 22
{30}
н/о н/о +0.5 -4.9 67 -10 -10 998.4 991.4
02 14.01 С 21
{28}
н/о н/о +0.5 -5.3 65 -10 -10 999.8 992.8 0.4
01 14.01 С 22
{32}
н/о н/о +0.2 -4.2 72 -10 -10 999.2 992.2 0.3
03 14.01 С 22
{30}
н/о н/о +0.2 -5.6 65 -10 -10 1000.5 993.5 0.9
04 14.01 С 20
{29}
н/о н/о +0.4 -5.8 63 -10 -10 1001.2 994.2 0.7
05 14.01 С 22
{28}
н/о н/о +0.4 -4.2 71 -10 -10 1001.9 994.9 0.6
06 14.01 С 22
{32}
10 км слаб. ливневой снег 9/6 300 м
[Cb cap Ac As]
-0.2 -4.1 75 -11 -11 1003.1 996.1 -1.3 +2.9
08 14.01 С 17
{25}
н/о н/о +0.9 -4.5 67 -8 -8 1004.8 997.8
07 14.01 С 17
{31}
н/о н/о +0.8 -4.8 66 -8 -8 1003.7 996.7 0.2
09 14.01 С 16
{25}
15 км осадки на расстоянии {ливн. осадки} 6/6 300 м
[Cb cap Ci ing]
+0.7 -5.3 64 -8 -8 1005.7 998.7 0.3
10 14.01 С 18
{24}
н/о н/о +1.4 -5.0 62 -8 -8 1006.0 999.0 0.1
11 14.01 СЗ 16
{21}
н/о н/о +1.8 -6.0 56 -7 -7 1006.4 999.4
12 14.01 СЗ 16
{31}
25 км {ливн. осадки} 6/6 600 м
[Cu med, cong]
+2.1 -6.2 54 -6 -6 1006.8 999.8
14 14.01 СЗ 18
{23}
н/о н/о +1.9 -3.5 67 -7 -7 1007.3 1000.3 0.3
13 14.01 СЗ 18
{23}
н/о н/о +1.9 -3.5 67 -7 -7 1007.3 1000.3 0.3
15 14.01 СЗ 14
{19}
20 км {ливн. осадки} 9/9 600 м
[Sc]
+2.5 -3.2 66 -6 -6 1007.9 1000.9
16 14.01 СЗ 14
{18}
н/о н/о +2.4 -3.5 65 -6 -6 1008.3 1001.3
17 14.01 СЗ 12
{17}
н/о н/о +2.2 -2.1 73 -6 -6 1008.4 1001.4 0.1
18 14.01 С 8
{23}
20 км {ливн. осадки} 10/9 600 м
[Sc]
+1.1 -1.3 84 -6 -6 1008.4 1001.4 -0.2 +2.7 0.2
20 14.01 С 5
{8}
н/о н/о +1.0 -1.1 86 -5 -5 1007.3 1000.3 0.2
19 14.01 СЗ 6
{10}
н/о н/о +1.2 -0.9 86 -5 -5 1008.0 1001.0 0.2
21 14.01 С 4
{7}
6000 м слаб. дождь со снегом 10/0
[As op]
+1.2 -0.9 86 -4 -4 1006.8 999.8 0.3
22 14.01 С 3
{5}
н/о н/о +1.3 -1.2 83 -3 -3 1006.5 999.5
23 14.01 С 3
{5}
н/о н/о +1.4 -1.5 81 -3 -3 1005.9 998.9
00 15.01 С 4
{10}
н/о н/о +1.6 -1.8 78 -3 -3 1005.3 998.3
02 15.01 Ю 2
{2}
н/о н/о +1.5 -2.1 77 -2 -2 1003.8 996.8
01 15.01 С 1
{5}
н/о н/о +1.5 -2.1 77 -0 -0 1004.7 997.7
04 15.01 Ю 9
{11}
н/о н/о +2.1 +0.3 88 -5 -5 1000.8 993.9 0.4
05 15.01 Ю 11
{14}
н/о н/о +2.9 +1.6 91 -5 -5 998.0 991.1 0.9
06 15.01 Ю 10
{14}
3500 м морось 10/0
[As op]
+4.6 +3.6 93 -2 -2 996.4 989.6 +1.0 +4.6 1
08 15.01 СЗ 13
{19}
н/о н/о +7.0 +5.2 88 +1 +1 996.2 989.4 0.1
07 15.01 З 13
{19}
н/о н/о +7.4 +6.5 94 +1 +1 995.7 988.9 0.2
09 15.01 СЗ 14
{18}
20 км {морось} 8/4 600 м
[St Ac As Ci sp]
+6.8 +3.8 81 0 0 997.0 990.2
10 15.01 СЗ 13
{18}
н/о н/о +6.7 +3.3 79 0 0 997.5 990.7
11 15.01 СЗ 12
{19}
н/о н/о +6.8 +3.6 80 +1 +1 997.5 990.7
12 15.01 СЗ 13
{19}
20 км {морось} 6/1 600 м
[St Ac As Cs]
+7.0 +2.9 75 +1 +1 997.6 990.8
14 15.01 СЗ 12
{17}
н/о н/о +6.9 +3.2 77 +1 +1 997.9 991.1
13 15.01 СЗ 11
{17}
н/о н/о +7.1 +2.8 74 +1 +1 997.8 991.0
15 15.01 СЗ 13
{18}
20 км 10/5 600 м
[Sc Ac As Cs]
+6.2 +2.3 76 -0 -0 998.1 991.3
16 15.01 З 10
{15}
н/о н/о +6.3 +3.3 81 0 0 998.3 991.5
17 15.01 З 10
{14}
н/о н/о +6.6 +2.3 74 +1 +1 998.2 991.4
18 15.01 З 8
{18}
20 км 10/1 600 м
[Sc As trans]
+6.5 +2.4 75 +1 +1 998.2 991.4 +4.6 +7.4
20 15.01 З 7
{10}
н/о н/о +6.5 +2.2 74 +2 +2 997.7 990.9
19 15.01 З 8
{12}
н/о н/о +6.5 +2.8 77 +1 +1 997.8 991.0
21 15.01 З 6
{8}
15 км 10/3 600 м
[Sc As trans]
+6.5 +3.1 79 +2 +2 997.2 990.4
22 15.01 З 8
{12}
н/о н/о +5.8 +2.3 78 0 0 996.6 989.8 0.1
23 15.01 ЮЗ 5
{12}
н/о н/о +5.0 +1.9 80 0 0 996.0 989.2 0.5
00 16.01 ЮЗ 6
{12}
н/о н/о +4.8 +1.7 80 -0 -0 994.8 988.0 0.1
02 16.01 Ю 9
{12}
н/о н/о +4.5 +2.7 88 -2 -2 991.9 985.1 2
01 16.01 Ю 8
{10}
н/о н/о +4.4 +1.8 83 -2 -2 993.5 986.7 0.7
03 16.01 Ю 10
{15}
н/о н/о +5.6 +4.3 91 -1 -1 990.2 983.4 2
04 16.01 ЮЗ 12
{15}
н/о н/о +7.2 +6.2 93 +1 +1 988.3 981.6 2
05 16.01 ЮЗ 14
{18}
н/о н/о +7.5 +6.4 93 +1 +1 987.2 980.5 0.8
06 16.01 З 14
{18}
10 км в посл. час дождь 10/10 300 м
[St]
+7.7 +6.5 92 +1 +1 986.4 979.7 +4.2 +7.7 0.2
08 16.01 З 12
{18}
н/о н/о +7.4 +5.2 86 +1 +1 985.2 978.5
07 16.01 З 14
{16}
н/о н/о +7.5 +6.1 91 +1 +1 985.8 979.1
09 16.01 З 17
{21}
15 км 10/9 300 м
[St Ac As]
+7.1 +4.1 81 0 0 984.3 977.6
10 16.01 З 17
{22}
н/о н/о +7.1 +3.7 79 0 0 983.7 977.0
11 16.01 З 15
{22}
н/о н/о +6.7 +4.0 83 -0 -0 982.9 976.2
12 16.01 З 14
{22}
15 км 10/9 300 м
[Sc]
+6.8 +4.3 84 0 0 982.2 975.5
14 16.01 С 16
{21}
н/о н/о +4.9 +1.0 76 -3 -3 984.4 977.6
13 16.01 С 14
{18}
н/о н/о +5.0 +2.9 86 -2 -2 983.4 976.7
15 16.01 С 15
{19}
25 км 8/4 600 м
[Sc Ci sp]
+4.5 +0.5 75 -3 -3 985.4 978.6
16 16.01 С 15
{19}
н/о н/о +4.3 -0.3 72 -3 -3 986.1 979.3
17 16.01 С 14
{18}
н/о н/о +4.2 -0.2 73 -3 -3 986.6 979.8
18 16.01
{21}
20 км 9/9 600 м
[Sc]
+4.1 -0.9 70 986.9 980.1 +4.0 +7.7
20 16.01 С 12
{14}
н/о н/о +3.8 -2.8 62 -3 -3 987.7 980.9
19 16.01 С 11
{14}
н/о н/о +4.0 -0.8 71 -3 -3 987.1 980.3
21 16.01 С 11
{15}
20 км 3/1 600 м
[Sc Cs]
+3.6 -3.4 60 -3 -3 987.9 981.1
22 16.01 С 13
{16}
н/о н/о +2.8 -0.6 78 -5 -5 988.4 981.6
23 16.01 С 14
{17}
н/о н/о +1.2 -0.7 87 -8 -8 989.1 982.2
00 17.01 С 12
{17}
н/о н/о +1.5 -1.1 83 -7 -7 989.7 982.8 0.2
02 17.01 СВ 9
{13}
н/о н/о +1.3 -1.7 80 -6 -6 990.1 983.2 0.3
01 17.01 СВ 9
{17}
н/о н/о +1.2 -1.0 85 -6 -6 989.6 982.7 0.1
03 17.01
{19}
н/о н/о +1.1 -0.8 87 990.8 983.9 0.4
04 17.01 С 12 н/о н/о +2.2 -3.3 67 -5 -5 991.4 984.5
05 17.01 С 14
{18}
н/о н/о +2.1 -3.6 66 -6 -6 992.1 985.2
06 17.01 С 14
{24}
20 км {снег} 9/5 600 м
[Sc Ac As Cs]
+1.9 -1.9 76 -7 -7 992.7 985.8 0.0 +4.1
08 17.01 С 17
{22}
н/о н/о +2.6 -2.9 67 -6 -6 994.5 987.6
07 17.01 С 15
{22}
н/о н/о +2.2 -2.5 71 -6 -6 993.3 986.4 0.2
09 17.01 С 16
{21}
30 км {ливн. осадки} 4/3 600 м
[Cb calv Cs]
+2.7 -3.4 64 -6 -6 996.2 989.3
10 17.01 С 15
{22}
н/о н/о +3.0 -2.5 67 -5 -5 997.4 990.5
11 17.01 С 14
{20}
н/о н/о +2.8 -2.7 67 -5 -5 998.6 991.7
12 17.01 С 13
{22}
55 км {ливн. осадки} 1/1 300 м
[Cb calv]
+2.3 -4.2 62 -5 -5 1000.2 993.3
14 17.01 С 13
{16}
н/о н/о +2.8 -5.1 56 -5 -5 1002.7 995.8
13 17.01 С 12
{18}
н/о н/о +2.4 -5.2 57 -5 -5 1001.7 994.8
15 17.01 С 10
{16}
55 км 3/3 300 м
[Sc]
+3.1 -3.9 60 -4 -4 1003.6 996.7
16 17.01
{17}
н/о н/о +3.0 -2.5 67 1004.8 997.9
17 17.01 С 14
{18}
н/о н/о +3.2 -2.7 65 -5 -5 1005.7 998.8
18 17.01 С 14
{18}
30 км 3/3 600 м
[Sc]
+2.8 -4.4 59 -5 -5 1006.8 999.8 +1.3 +3.3
20 17.01
{16}
н/о н/о +2.8 -5.3 55 1008.4 1001.4
19 17.01 С 11
{17}
н/о н/о +2.7 -4.7 58 -4 -4 1007.4 1000.4
21 17.01 С 12
{17}
30 км 1/1 600 м
[Cu hum]
+2.7 -5.6 54 -5 -5 1009.0 1002.0
22 17.01 С 11
{15}
н/о н/о +2.5 -5.3 56 -5 -5 1009.5 1002.5
23 17.01 С 9
{14}
н/о н/о +2.0 -4.5 62 -5 -5 1010.1 1003.1
00 18.01 С 8
{17}
н/о н/о +2.0 -6.0 55 -4 -4 1010.5 1003.5
02 18.01 СЗ 5
{9}
н/о н/о +1.9 -6.1 55 -3 -3 1011.0 1004.0
01 18.01 С 7
{11}
н/о н/о +2.0 -6.0 55 -4 -4 1011.0 1004.0
03 18.01 СЗ 4
{8}
н/о н/о +2.2 -5.9 55 -2 -2 1011.0 1004.0
04 18.01 З 7
{13}
н/о н/о +1.9 -2.6 72 -4 -4 1011.1 1004.1 0.2
05 18.01 СЗ 10
{16}
н/о н/о +1.5 -2.4 75 -6 -6 1011.3 1004.3
06 18.01 СЗ 6
{16}
25 км {снег} 4/1 600 м
[Sc Cs]
+1.5 -2.4 75 -5 -5 1011.4 1004.4 +1.4 +2.9
08 18.01 С 4
{7}
н/о н/о +1.4 -1.5 81 -4 -4 1012.2 1005.2
07 18.01 С 6
{16}
н/о н/о +1.0 -1.5 83 -5 -5 1011.8 1004.8 0.1
09 18.01 С 10
{13}
25 км слаб. ливневой дождь со снегом 8/6 600 м
[Cb cap Cs]
+2.2 -1.6 76 -5 -5 1012.8 1005.8
10 18.01 СЗ 7
{11}
н/о н/о +2.2 -0.9 80 -4 -4 1013.1 1006.1
11 18.01 СЗ 6
{8}
н/о н/о +2.8 -1.2 75 -3 -3 1013.5 1006.5
12 18.01 СЗ 5
{16}
40 км {ливн. осадки} 8/4 600 м
[Cu med, cong Ci sp]
+3.2 -1.3 72 -2 -2 1013.7 1006.7
14 18.01 З 7
{10}
н/о н/о +3.7 -1.8 67 -2 -2 1013.4 1006.4
13 18.01 З 6
{8}
н/о н/о +3.6 -1.7 68 -2 -2 1013.6 1006.6
15 18.01 З 7
{10}
30 км 5/3 600 м
[Sc Ci sp]
+3.8 -2.4 64 -2 -2 1013.8 1006.8
16 18.01 З 7
{9}
н/о н/о +3.9 -2.3 64 -2 -2 1013.8 1006.8
17 18.01 З 7
{10}
н/о н/о +3.9 -2.7 62 -2 -2 1013.9 1006.9
18 18.01 З 6
{10}
30 км 5/1 600 м
[Cu hum Ci sp]
+3.7 -2.9 62 -1 -1 1014.0 1007.0 +0.8 +4.0
20 18.01 З 6
{8}
н/о н/о +3.8 -2.8 62 -1 -1 1014.5 1007.5
19 18.01 З 6
{9}
н/о н/о +3.9 -2.7 62 -1 -1 1014.1 1007.1
21 18.01 З 4
{8}
25 км 9/8 600 м
[Sc Ci sp]
+4.1 -2.7 61 0 0 1014.6 1007.6
22 18.01 З 5
{8}
н/о н/о +3.9 -2.9 61 -1 -1 1014.7 1007.7
23 18.01 З 3
{6}
н/о н/о +3.9 -2.9 61 +1 +1 1014.7 1007.7
00 19.01 З 5
{9}
н/о н/о +4.2 -3.3 58 -0 -0 1014.7 1007.7
02 19.01 ЮЗ 5
{7}
н/о н/о +3.8 -3.2 60 -1 -1 1014.2 1007.2
01 19.01 ЮЗ 5
{7}
н/о н/о +4.1 -4.1 55 -0 -0 1014.5 1007.5
03 19.01 ЮЗ 4
{6}
н/о н/о +3.8 -2.4 64 -0 -0 1014.0 1007.0
04 19.01 ЮЗ 4
{7}
н/о н/о +3.8 -2.8 62 -0 -0 1013.9 1006.9
05 19.01 ЮЗ 4
{7}
н/о н/о +3.9 -1.4 68 -0 -0 1013.7 1006.7
06 19.01 З 4
{7}
25 км 3/1 600 м
[Cu med, cong Cs]
+3.8 -1.9 66 -0 -0 1013.6 1006.6 +3.3 +4.3
08 19.01 ЮЗ 4
{6}
н/о н/о +3.3 -0.5 76 -1 -1 1013.8 1006.8
07 19.01 ЮЗ 3
{6}
н/о н/о +3.4 -1.7 69 -0 -0 1013.6 1006.6
09 19.01 ЮЗ 4
{6}
30 км 3/3 600 м
[Cu med, cong Cs]
+3.3 -0.7 75 -1 -1 1013.9 1006.9
10 19.01 СЗ 7
{9}
н/о н/о +4.0 +0.4 77 -2 -2 1014.2 1007.2
11 19.01 ЮЗ 3
{7}
н/о н/о +4.9 +0.3 72 +2 +2 1014.1 1007.1
12 19.01 ЮЗ 4
{9}
55 км {ливн. осадки} 3/3 600 м
[Cu med, cong]
+5.0 +0.2 71 +1 +2 1013.9 1006.9
13 19.01 ЮЗ 3
{6}
н/о н/о +4.9 +0.1 71 +2 +2 1013.9 1006.9

 

Местоположение метеостанции Маяк Utsira (Норвегия): широта 59.31 долгота 4.88 высота над уровнем моря 55 м.

В архиве по умолчанию представлена погода на Маяке Utsira за последнюю неделю. Архивные данные за месяц целиком и за предыдущие месяцы, начиная с января 2011 года, Вы можете получить, выбрав интересующий диапазон дат из раскрывающегося списка и нажав кнопку "Ввод!".


*Определитесь, кто Вы:
робот инопланетянин человек

Внимание! Время в таблицах - всемирное. Для получения местного времени необходимо прибавить поправку, которая равна 1 ч.

Смотрите также архив погоды в соседних городах и на ближайших метеорологических станциях:

Погода в Роваере (Норвегия) (18 км)
Погода в Аэропорту Haugesund (Норвегия) (19 км)
Погода в Квитсёй (Норвегия) (41 км)
Погода в Недре Ватс (Норвегия) (52 км)
Погода в Ставангере (Норвегия) (62 км)
Погода в Ставангер аэропорту (Норвегия) (65 км)
Погода в Фистере (Норвегия) (67 км)
Погода на Маяке Slatteroy (Норвегия) (68 км)
Погода в Сархейме (Норвегия) (75 км)
Погода на Лярватне (Норвегия) (76 км)

Пояснения к столбцам:

Ветер - указаны скорость ветра в м/с - средняя за 10 мин, порывы в срок и между сроками (в фигурных скобках) и направление, откуда дует ветер: С - северный, СВ - северо-восточный, В - восточный, ЮВ - юго-восточный, Ю - южный, ЮЗ - юго-западный, З - западный, СЗ - северо-западный.
Видимость - горизонтальная дальность видимости в метрах или километрах. При видимости от 1 до 10 км при отсутствии осадков обычно наблюдается дымка, при ухудшении видимости до 1 км и менее - туман. В сухую погоду видимость может ухудшаться дымом, пылью или мглою.
Явления - указаны атмосферные явления, наблюдавшиеся в срок или в последний час перед сроком; фигурными скобками обозначены явления, наблюдавшиеся между сроками (за 1-3 часа до срока); квадратными скобками обозначены град или гололедные отложения с указанием их диаметра в мм.
Облачность - указаны через наклонную черту общая и нижняя облачность в баллах и высота нижней границы облаков в метрах; квадратными скобками обозначены формы облаков: Ci - перистые, Cs - перисто-слоистые, Cc - перисто-кучевые, Ac - высококучевые, As - высокослоистые, Sc - слоисто-кучевые, Ns - слоисто-дождевые, Cu - кучевые, Cb - кучево-дождевые. Подробнее классификацию облаков см. в Атласе облаков (PDF).
T - Температура воздуха - температура, измеренная на высоте 2 м над землей.
Td - Температура точки росы - температура, при понижении до которой содержащийся в воздухе водяной пар достигнет насыщения.
f - Относительная влажность воздуха - влажноcть воздуха, измеренная на высоте 2 м над землей.
Te - Эффективная температура - температура, которую ощущает одетый по сезону человек в тени. Характеристика душности погоды. При расчете учитывается влияние влажности воздуха и скорости ветра на теплоощущения человека.
Tes - Эффективная температура на солнце - температура, которую ощущает человек, с поправкой на солнечный нагрев. Характеристика знойности погоды. Зависит от высоты солнца над горизонтом, облачности и скорости ветра. Ночью, в пасмурную погоду, а также при ветре 12 м/с и более поправка равна нулю.
P - Атмосферное давление - приведенное к уровню моря атмосферное давление.
Po - Атмосферное давление - измеренное на уровне метеостанции атмосферное давление.
Tmin - Минимальная температура - минимум температуры воздуха на высоте 2 м над землей.
Tmax - Максимальная температура - максимум температуры воздуха на высоте 2 м над землей.
R - Количество осадков - Количество выпавших осадков за период времени, мм. При наведении курсора мыши на число - период времени, за который выпало указанное количество осадков.
R24 - Количество осадков - Количество выпавших осадков за 24 часа, мм.
S - Снежный покров - Высота снежного покрова, см. При наведении курсора мыши на число - состояние снежного покрова и степень покрытия местности в баллах.